Simultaneous Nadir Overpasses (SNOs) Predictions

Prediction of SNOs between NOAA-20 and METOP-B Satellite Orbit:

Table of predicted SNOs for the next 14.0 days since TLE Epoch: 9/18/2020
Index Date (NOAA-20) Time (NOAA-20) Lat,Lon (NOAA-20) SZA (NOAA-20 ) Date (METOP-B) Time (METOP-B) Lat,Lon (METOP-B) SZA (METOP-B ) Distance(km) Time Diff (sec)
1 09/18/2020 17:25:59 -72.72, 90.29 108.75 09/18/2020 17:25:20 -72.71, 90.36 108.75 2.44 39
2 09/18/2020 18:16:45 72.72,-102.40 71.27 09/18/2020 18:16:00 72.69,-102.35 71.25 3.11 45
3 09/18/2020 19:07:28 -72.67, 65.00 108.76 09/18/2020 19:06:42 -72.69, 64.97 108.74 1.91 46
4 09/18/2020 19:58:14 72.67,-127.69 71.25 09/18/2020 19:57:22 72.67,-127.74 71.26 1.63 52
5 09/18/2020 20:48:58 -72.68, 39.61 108.73 09/18/2020 20:48:04 -72.67, 39.58 108.74 2.05 54
6 09/18/2020 21:39:44 72.68,-153.08 71.29 09/18/2020 21:38:43 72.70,-153.02 71.31 2.62 61
7 09/18/2020 22:30:28 -72.69, 14.22 108.69 09/18/2020 22:29:25 -72.69, 14.30 108.68 2.60 63
8 09/18/2020 23:21:14 72.69,-178.47 71.32 09/18/2020 23:20:05 72.67,-178.41 71.32 2.63 69
9 09/19/2020 00:11:57 -72.65, -11.07 108.71 09/19/2020 00:10:47 -72.67, -11.09 108.68 2.63 70
10 09/19/2020 01:02:42 72.59, 156.35 71.25 09/19/2020 01:01:28 72.60, 156.10 71.27 8.32 74
11 09/19/2020 01:53:25 -72.55, -36.25 108.79 09/19/2020 01:52:11 -72.54, -36.68 108.77 14.49 74
12 09/19/2020 02:44:06 72.30, 131.57 70.96 09/19/2020 02:42:55 72.32, 130.20 71.04 46.28 71
13 09/19/2020 03:34:49 -72.26, -61.03 109.07 09/19/2020 03:33:38 -72.27, -62.57 109.00 52.21 71
14 09/19/2020 04:25:30 72.00, 106.77 70.67 09/19/2020 04:24:23 71.99, 104.23 70.77 87.61 67
15 09/19/2020 05:16:13 -71.96, -85.83 109.36 09/19/2020 05:15:06 -71.93, -88.54 109.27 93.42 67
